Theta_e
316 318 325 332 349 352 355 357 361 358 354 352 350 351 351 352 353 351 350 352 354 353 352 349 350 351 347 349 349 346 344 346
314 316 318 325 340 353 353 356 360 359 356 354 353 351 352 352 354 355 353 352 353 350 347 346 349 347 350 347 346 349 350 351
315 316 321 325 334 349 353 356 359 358 359 355 354 352 351 351 353 355 353 348 350 349 348 346 346 347 347 347 349 350 350 351
314 315 318 326 330 340 353 358 361 362 358 358 355 355 353 351 351 352 353 349 350 347 348 345 344 349 349 350 353 351 351 353
313 315 317 320 330 336 349 358 361 362 361 359 356 355 353 351 350 354 352 352 352 350 344 342 347 352 357 356 356 355 353 354
313 315 318 320 327 332 345 352 358 360 360 359 355 355 354 352 352 352 353 352 351 350 343 344 353 354 353 353 354 353 352 352
315 316 318 320 323 331 342 352 356 360 362 359 358 359 354 352 352 351 352 350 349 346 341 352 357 352 352 352 352 351 350 350
315 317 319 321 323 327 338 346 355 359 358 360 356 355 353 353 351 350 351 349 346 347 346 353 357 351 351 350 352 353 351 348
315 317 318 320 323 326 332 337 346 358 352 352 351 350 350 350 350 351 351 347 352 353 351 355 356 351 351 355 353 349 344 346
314 316 317 320 323 327 335 340 347 355 351 356 354 352 350 350 349 350 350 346 352 353 354 354 355 350 355 354 352 344 341 339
313 314 316 318 321 325 331 342 348 353 357 352 351 354 350 347 347 346 346 344 350 356 357 355 356 353 350 352 349 346 336 332
314 315 316 317 319 322 330 340 349 349 354 352 352 348 345 345 346 346 345 347 351 356 357 355 354 350 348 346 345 342 338 331
312 314 315 318 319 320 327 338 346 348 351 353 348 350 348 347 345 352 350 352 354 354 354 352 347 342 339 334 332 332 329 326
313 315 316 317 319 320 323 333 344 347 349 351 348 350 352 345 347 348 349 351 350 351 347 340 339 334 331 327 328 327 325 324
312 312 313 316 317 319 320 328 338 345 346 348 352 354 356 351 347 344 342 337 339 335 339 331 327 326 327 326 324 323 322 318
312 313 315 315 317 319 319 326 335 343 345 346 351 354 350 349 348 345 336 340 338 334 326 331 329 323 323 321 318 317 316 315
313 315 316 317 319 321 321 323 333 340 341 344 347 355 353 349 349 343 344 343 337 334 331 326 325 324 319 316 312 313 316 316
312 314 316 319 321 322 323 324 329 338 341 346 343 350 352 347 342 340 334 336 335 330 326 325 324 321 316 315 315 317 316 315
312 314 315 317 319 321 322 323 327 335 341 345 341 343 345 342 342 335 334 333 330 327 326 323 319 318 318 316 315 316 316 316
312 313 315 316 317 319 322 324 325 334 339 343 346 339 341 342 335 333 330 332 330 325 322 321 318 318 318 316 314 314 313 312
Wind_Speed
7 7 4 4 7 6 6 10 12 14 12 11 8 8 8 8 10 11 7 7 7 7 6 7 7 8 7 10 9 8 5 5
7 8 5 3 7 11 10 11 13 13 10 10 10 9 9 8 10 11 7 6 7 7 5 6 4 5 2 5 4 3 5 6
10 6 7 6 7 10 13 13 13 12 12 11 10 9 9 10 10 11 8 8 7 7 5 5 4 3 5 4 4 4 4 6
16 11 10 9 8 10 13 17 16 15 13 13 11 9 11 9 9 10 12 9 7 7 6 6 5 4 4 3 3 4 5 5
19 15 14 11 10 10 14 12 16 17 16 13 11 11 11 10 9 10 12 10 8 6 6 6 5 5 3 4 5 4 4 3
19 17 10 11 11 12 13 13 14 18 17 14 11 11 10 10 9 9 11 10 9 8 6 6 5 4 5 4 3 2 3 4
14 15 12 10 9 12 14 15 15 17 16 13 12 12 10 9 9 9 12 11 11 8 7 6 5 4 4 4 3 3 3 4
13 14 13 10 8 10 14 14 14 14 12 10 11 10 10 9 9 8 11 8 11 9 8 6 6 5 4 5 4 2 4 4
14 15 13 10 8 9 13 14 15 11 10 12 12 13 12 11 9 13 12 11 12 10 8 8 7 6 5 5 5 4 2 2
17 16 15 11 9 9 11 14 15 13 9 11 11 12 12 11 11 12 14 12 11 10 8 8 6 5 5 6 5 3 1 3
18 17 16 14 11 9 10 13 13 13 17 9 5 8 9 11 12 11 11 12 11 9 8 5 7 4 5 4 4 5 4 3
16 17 18 16 14 10 9 10 12 13 17 13 15 14 12 12 11 12 11 11 12 10 8 6 5 3 4 2 2 1 5 5
18 19 18 17 15 13 10 9 13 12 16 15 12 16 13 11 11 15 13 12 11 11 11 9 8 5 7 8 5 4 3 3
11 15 15 14 15 14 12 11 12 12 17 18 15 15 13 14 15 12 11 10 8 9 11 10 10 9 8 9 8 6 5 7
9 12 14 14 14 14 11 13 13 14 16 17 20 19 16 17 16 12 14 10 8 10 11 9 7 10 9 7 9 5 6 6
4 5 8 9 9 10 10 12 13 15 17 16 18 19 14 13 16 13 8 12 10 13 8 11 11 12 10 3 7 4 7 7
3 4 6 7 8 8 9 12 12 12 14 13 16 18 18 16 16 13 9 12 13 15 13 12 11 12 8 8 5 7 10 9
6 7 7 7 8 6 8 12 12 12 13 15 14 19 18 17 16 15 14 11 17 15 13 14 13 13 11 8 9 10 10 7
12 12 11 10 8 9 4 9 14 12 13 14 15 16 16 17 16 15 16 15 14 14 15 15 15 14 10 11 12 11 10 7
16 16 14 12 12 9 7 7 13 12 11 12 16 14 19 18 16 17 17 17 15 16 15 15 15 14 13 13 12 10 8 7
Wind_Direction
308 312 332 343 164 164 229 171 208 177 168 166 166 165 162 166 173 179 189 177 169 197 168 182 192 192 215 197 198 226 240 294
286 289 308 244 208 184 186 179 193 195 169 177 172 169 169 175 176 180 170 195 179 204 200 192 207 197 240 231 235 276 274 267
274 261 276 257 227 202 190 184 193 190 188 179 179 177 181 182 174 181 178 197 191 196 193 211 207 181 210 239 243 264 254 254
274 260 241 248 229 219 216 200 185 191 199 180 178 189 178 184 185 178 189 196 183 194 190 207 205 215 221 231 231 291 274 285
269 271 268 237 225 218 222 204 194 190 196 191 188 187 179 184 187 179 197 197 177 218 204 204 196 190 222 228 249 228 251 258
265 265 258 247 227 213 208 219 199 195 193 193 194 185 190 184 176 176 195 183 176 193 194 202 185 200 210 222 229 233 269 278
246 247 246 245 239 223 212 216 208 202 198 193 194 184 191 185 182 175 180 182 175 189 192 188 197 207 199 197 193 260 241 261
239 233 246 247 238 233 220 211 209 209 199 195 192 178 184 185 179 170 168 177 171 186 185 187 215 204 185 211 210 165 301 300
236 233 239 244 232 240 223 217 219 205 203 188 190 189 184 178 174 167 173 173 176 175 191 187 206 207 209 186 198 182 209 256
230 234 231 238 245 242 226 224 212 205 194 196 203 191 187 181 167 170 177 172 175 183 184 179 189 168 178 195 204 198 181 312
232 228 230 236 238 234 232 220 216 212 199 195 178 189 179 183 158 175 165 166 182 188 173 186 159 216 169 234 211 217 207 120
240 233 227 232 236 232 231 218 198 202 217 184 184 187 179 185 163 166 150 168 180 174 143 155 151 138 108 85 321 309 261 143
230 227 230 231 244 236 221 214 202 186 205 207 192 204 181 170 172 153 141 158 170 158 151 142 132 127 107 96 56 13 347 20
239 246 236 234 241 243 231 212 197 183 200 204 196 188 181 170 170 142 149 136 159 139 127 129 116 122 126 112 110 91 51 62
245 221 223 227 237 232 237 220 203 188 204 205 199 188 187 173 149 148 147 119 134 126 144 137 115 115 108 113 100 90 102 72
263 276 268 263 244 253 224 232 216 194 202 209 210 192 185 174 160 158 147 147 141 131 130 126 121 110 106 107 97 122 79 75
328 319 292 297 293 268 246 235 220 210 200 206 212 193 179 157 151 136 155 130 127 135 140 124 125 116 113 102 96 79 80 72
322 312 314 320 301 290 273 245 228 210 209 215 215 191 177 150 140 137 128 139 144 138 132 131 133 123 115 112 107 84 80 77
314 314 318 315 303 284 274 247 236 215 210 212 214 192 163 140 139 144 135 146 138 136 141 133 130 118 113 104 97 93 86 83
296 297 298 304 300 287 277 246 243 216 209 208 211 184 159 153 140 133 129 138 141 131 134 133 127 125 117 98 93 89 85 78